User: anonymous   Login
Location: Unspecified
(0.0000°N, 0.0000°E)
Time: 20:09:41
(UTC+02:00)
Language:

ARIANE 5 R/B - Orbit

View from above orbital plane
View from above orbital plane
View from above satellite
View from above satellite

Ground track
Ground track

The orbit data is extracted from the following two-line orbital elements,

1 28379U 04027B   15244.18144304 -.00000221  00000-0  38448-2 0  9998
2 28379   6.6479 191.3846 7282793 355.4633  61.7564  2.07926029 84516
Epoch (UTC): 01 September 2015 04:21:16
Eccentricity: 0.7282793
inclination: 6.6479°
perigee height: 667 km
apogee height: 38435 km
right ascension of ascending node: 191.3846°
argument of perigee: 355.4633°
revolutions per day: 2.07926029
mean anomaly at epoch: 61.7564°
orbit number at epoch: 8451

The dashed part of the orbit path shows where the satellite is in the earth's shadow,  

DLR